Location: Gündelbach
(48.9934°N, 8.9415°E)
Time: 18:12:03
(UTC+00:00)

Cosmos 2346 Rocket - Pass Details

Date: 14 August 2025
Orbit: 935 x 979 km, 82.9° (Epoch: 19 April)

Event Time Altitude Azimuth Distance (km) Brightness Sun altitude
Rises 02:23:42 0° 348° (NNW) 3,650 8.0 -15.9°
Reaches altitude 10° 02:26:13 10° 346° (NNW) 2,706 7.2 -15.6°
Maximum altitude 02:32:19 64° 266° (W) 1,065 4.5 -14.9°
Drops below altitude 10° 02:38:28 10° 186° (S) 2,715 6.4 -14.1°
Enters shadow 02:38:33 10° 186° (S) 2,744 6.4 -14.1°
